This is the latest recevied weather packets stored in our database for station/object AE0NK. If no packets are shown the sender has not sent any weather packets the latest 10 day(s).
| Time | Temp. | Humidity | Pressure | Rain* | Wind** | Luminosity | Snow |
|---|---|---|---|---|---|---|---|
| 1777738993 | 12.22° C | 32% | 1020.6 hPa | 0 mm | - | 918 W/m² | - |
| 1777738711 | 12.22° C | 40% | 1020.7 hPa | 0 mm | - | 905 W/m² | - |
| 1777738407 | 11.67° C | 36% | 1020.7 hPa | 0 mm | - | 160 W/m² | - |
| 1777738107 | 12.22° C | 31% | 1020.7 hPa | 0 mm | - | 209 W/m² | - |
| 1777737805 | 12.78° C | 36% | 1020.6 hPa | 0 mm | - | 893 W/m² | - |
| 1777737500 | 12.78° C | 34% | 1020.7 hPa | 0 mm | - | 867 W/m² | - |
| 1777737199 | 12.78° C | 33% | 1020.8 hPa | 0 mm | - | 889 W/m² | - |
| 1777736896 | 12.22° C | 30% | 1020.9 hPa | 0 mm | - | 838 W/m² | - |
| 1777736593 | 12.22° C | 39% | 1020.8 hPa | 0 mm | - | 803 W/m² | - |
| 1777736311 | 12.22° C | 36% | 1020.9 hPa | 0 mm | - | 800 W/m² | - |
| 1777736006 | 12.78° C | 37% | 1020.9 hPa | 0 mm | - | 773 W/m² | - |
| 1777735703 | 12.22° C | 42% | 1020.9 hPa | 0 mm | - | 733 W/m² | - |
| 1777735401 | 11.67° C | 42% | 1020.9 hPa | 0 mm | - | 722 W/m² | - |
| 1777735099 | 11.11° C | 44% | 1021 hPa | 0 mm | - | 721 W/m² | - |
| 1777734796 | 11.67° C | 44% | 1020.9 hPa | 0 mm | - | 729 W/m² | - |
| 1777734493 | 11.67° C | 43% | 1020.9 hPa | 0 mm | - | 686 W/m² | - |
| 1777734211 | 11.11° C | 46% | 1020.8 hPa | 0 mm | - | 673 W/m² | - |
| 1777733905 | 11.11° C | 42% | 1020.9 hPa | 0 mm | - | 657 W/m² | - |
| 1777733601 | 11.11° C | 58% | 1020.9 hPa | 0 mm | - | 642 W/m² | - |
| 1777733296 | 11.11° C | 59% | 1020.8 hPa | 0 mm | - | 629 W/m² | - |
| 1777732995 | 11.11° C | 59% | 1020.8 hPa | 0 mm | - | 605 W/m² | - |
| 1777732711 | 10.56° C | 57% | 1020.9 hPa | 0 mm | - | 592 W/m² | - |
| 1777732407 | 10.56° C | 60% | 1020.9 hPa | 0 mm | - | 584 W/m² | - |
| 1777732124 | 10° C | 62% | 1020.9 hPa | 0 mm | - | 564 W/m² | - |
| 1777731800 | 10° C | 62% | 1020.9 hPa | 0 mm | - | 550 W/m² | - |
* Rain latest hour (hover to see other rain measurements)
** Current wind speed in m/s (hover to see current wind gust speed)